Regional Weather Roundup
Issued by NWS Wakefield, VA

Home | Current Version | Previous Version | Text Only | Print | Product List | Glossary Off
Versions: 1 2 3 4 5 6 7 8 9 10 11 12 13 14 15 16 17 18 19 20 21 22 23 24 25 26 27 28 29 30 31 32 33 34 35 36 37 38 39 40 41 42 43 44 45 46 47 48 49 50

000
ASUS41 KAKQ 010810
RWRAKQ

REGIONAL WEATHER ROUNDUP
NATIONAL WEATHER SERVICE WAKEFIELD VA
300 AM EST SUN FEB 01 2015

Note: "fair" indicates few or no clouds below 12,000 feet with no
significant weather and/or obstructions to visibility. * = Denotes
station may not report precipitation (e.g., rain,snow,etc.),
thunder or fog.

VAZ042-051-052>054-056-010900-
NORTHERN VIRGINIA

CITY           SKY/WX    TMP DP  RH WIND       PRES   REMARKS
WASH NATIONAL  CLOUDY    27  19  72 S5        30.29S
DULLES         CLOUDY    22  15  75 CALM      30.27S
FORT BELVOIR   PTCLDY    20  16  83 CALM      30.29S
QUANTICO       MOCLDY    24  15  68 NW6       30.30F
FREDERICKSBRG* PTCLDY    25  17  73 CALM      30.28S
STAFFORD*      MOCLDY    21  15  77 CALM      30.32F
WARRENTON      MOCLDY    23  23  98 CALM      30.26F
CULPEPER*      CLOUDY    23  19  86 CALM      30.27S
MANASSAS*      MOCLDY    21  19  93 CALM      30.28F
LEESBURG*      MOCLDY    23  19  86 SW3       30.26F
WINCHESTER     CLOUDY    28  16  59 CALM      30.23S
FRONT ROYAL*   FAIR      25  18  74 CALM      30.23F
LURAY*         CLOUDY    28  23  80 CALM      30.23S
$$

VAZ048-049-060>072-079>083-010900-
CENTRAL AND SOUTH CENTRAL VIRGINIA

CITY           SKY/WX    TMP DP  RH WIND       PRES   REMARKS
RICHMOND       MOCLDY    27  18  69 NE3       30.26R
CHESTERFIELD*  FAIR      27   9  46 CALM      30.26R
PETERSBURG*    CLOUDY    27  22  82 S3        30.27S
HANOVER        PTCLDY    24  11  57 NE3       30.28S
TAPPAHANNOCK*  PTCLDY    22  14  69 CALM      30.29R
QUINTON*       PTSUNNY   22  16  78 CALM      30.27S
CHARLOTTSVILLE CLOUDY    29  11  47 N3        30.24S
GORDONSVILLE*  FAIR      25  16  67 NE3       30.25F
ORANGE*        CLOUDY    28  19  69 CALM      30.27F
LOUISA*        MOCLDY    27  12  54 NE3       30.24F
BUMPASS*       FAIR      26  11  53 CALM      30.26F
FARMVILLE*     CLOUDY    32  21  63 CALM      30.24R
CREWE*         PTSUNNY   32  16  51 CALM      30.24S
FORT PICKETT*  CLOUDY    31  19  60 CALM      30.24S
CHASE CITY*    FAIR      33  25  71 CALM      30.25R
CLARKSVILLE*   FAIR      32  21  64 CALM      30.25R
SOUTH HILL*    CLOUDY    32  12  43 CALM      30.30F
LAWRENCEVILLE* FAIR      29  19  65 CALM      30.25S
EMPORIA*       MOCLDY    30  21  69 CALM      30.28S
$$

VAZ088>098-010900-
SOUTHEAST VIRGINIA

CITY           SKY/WX    TMP DP  RH WIND       PRES   REMARKS
NORFOLK        CLEAR     27  15  61 CALM      30.27R
VIRGINIA BEACH PTCLDY    25  16  68 CALM      30.27R
NORFOLK NAVAL  PTCLDY    31  17  56 CALM      30.28S
WEST POINT*    CLEAR     23  17  75 CALM      30.29S
SALUDA*        FAIR      22  19  88 CALM      30.28R
NEWPORT NEWS   CLEAR     25  19  78 CALM      30.27S
LANGLEY AFB    MOCLDY    23  19  84 N3        30.27S
FORT EUSTIS    MOCLDY    26  18  74 CALM      30.26R
WILLIAMSBURG*    N/A     27  21  80 CALM      30.28R
HR EXEC AP*    FAIR      23  19  86 CALM      30.29R
FRANKLIN*      PTCLDY    26  20  78 CALM      30.28R
WAKEFIELD      PTCLDY    26  18  71 CALM      30.27R
$$

VAZ020-022-025-037-045-010900-
WEST CENTRAL AND SOUTHWEST VIRGINIA

CITY           SKY/WX    TMP DP  RH WIND       PRES   REMARKS
STAUNTON*      CLOUDY    29  20  69 NE3       30.22F
WAYNESBORO*    CLOUDY    35   5  28 SW3       30.20F
HOT SPRINGS VA CLOUDY    28   2  34 W12       30.09S WCI  17
LYNCHBURG      CLOUDY    32  14  47 CALM      30.24S
DANVILLE       CLOUDY    31  18  58 SW3       30.25F
SOUTH BOSTON*  FAIR      29  20  68 CALM      30.25S
MARTINSVILLE   CLOUDY    30  21  68 CALM      30.27R
ROANOKE        CLOUDY    37  11  34 NW5       30.24S
BLACKSBURG     CLOUDY    32  13  45 CALM      30.23F
DUBLIN*        CLOUDY    32  20  60 CALM      30.21S
MARION*        CLOUDY    34  11  39 SW5       30.20F
HILLSVILLE*    CLOUDY    35   1  23 SE5       30.17F
RICHLANDS*     CLOUDY    34   6  31 CALM      30.17S
WISE*          CLOUDY    34  14  44 NW3       30.18R
ABINGDON*      CLOUDY    37  13  37 CALM      30.19S
$$

MDZ021>025-VAZ099-100-010900-
SOUTHERN MARYLAND AND THE DELMARVA PENINSULA

CITY           SKY/WX    TMP DP  RH WIND       PRES   REMARKS
PATUXENT RIVER CLEAR     19  12  74 SW3       30.29R
BAY BRIDGE APT   N/A     23  18  80 CALM      30.28F
LEONARDTOWN    CLEAR     21  12  68 CALM      30.30S
DOVER          CLEAR     19  13  78 SW5       30.28R
GEORGETOWN     PTCLDY    19  12  74 CALM      30.29S
EASTON         CLEAR     21  17  85 CALM      30.31F
CAMBRIDGE      CLEAR     21  18  86 CALM      30.28S
SALISBURY      PTCLDY    18  11  74 CALM      30.29S
OCEAN CITY     CLEAR     19  12  74 NW3       30.29S
WALLOPS ISLAND PTCLDY    20  14  77 CALM      30.31R
ACCOMACK*      CLEAR     21  14  73 NE6       30.28S
$$

NCZ012>017-030>032-010900-
NORTH CENTRAL AND EASTERN NORTH CAROLINA

CITY           SKY/WX    TMP DP  RH WIND       PRES   REMARKS
ROANOKE RAPIDS PTSUNNY   32  23  69 CALM      30.26S
RALEIGH        CLOUDY    36  16  44 CALM      30.27S
ELIZABETH CITY CLEAR     31  21  66 S3        30.28S
AHOSKIE*       CLOUDY    29  20  69 CALM      30.27F
EDENTON*       CLEAR     36  23  59 SW6       30.28S
CURRITUCK*     CLEAR     28  24  83 CALM      30.28S
KILL DEVIL HLS CLEAR     34  25  69 SW5       30.27S
MANTEO         CLEAR     34  25  69 SW5       30.29S
CAPE HATTERAS  CLEAR     37  20  50 W6        30.30S
TARBORO*       FAIR      31  27  86 CALM      30.29S
GOLDSBORO      CLOUDY    37  22  53 CALM      30.28R
WASHINGTON     MOCLDY    34  19  55 S3        30.30R
GREENVILLE     CLOUDY    36  19  51 SW6       30.29S
NEW BERN       PTCLDY    35  23  61 SW5       30.32R
WILMINGTON     PTCLDY    31  27  85 CALM      30.32R
$$

VAZ048-010900-
ELSEWHERE

CITY           SKY/WX    TMP DP  RH WIND       PRES   REMARKS
HARRISBURG PA  CLOUDY    15   9  76 CALM      30.24F
BALTIMORE      MOCLDY    19  12  74 CALM      30.26F
ANNAPOLIS      CLEAR     23  14  68 CALM      30.27F
ANDREWS AFB    PTCLDY    20  15  79 SW2       30.27S
PHILADELPHIA   PTCLDY    22  11  62 SW6       30.26S
HENDERSON NC   CLOUDY    32  21  64 CALM      30.26R
GREENSBORO     MOCLDY    36  15  42 SW5       30.23S
ROCKY MOUNT    CLOUDY    33  23  66 S3        30.28S
$$

VAZ100-010900-
MARINE

STATION/POSITION TIME  TEMP    WIND        PRES    WAVE   SWELL
                       AIR SEA DIR/SP/G            HT/PER HT/PER
                 (UTC) (F)     (DEG/KT/KT) (MB)    (FT/S) (FT/S)
BRANDYWINE LGT   0800   29 34  300/  9/ 11 1025.3S
CAPE MAY NJ      0800   29 32              1024.8R
LEWES DE         0800   26 35  280/  5/  6 1025.4R
15NM E FENWICK I 0800   32 39              1025.0R   3/ 4
OCEAN-CITY-INLET 0800   27 33  340/  5/  6 1025.0F
WACHAPREAGUE VA  0800   24 33   10/  2/  2 1025.5S
THOMAS POINT MD  0800   28 35  250/  2/  3 1026.4F
GOOSES REEF MD   0800   30 33  VRB  2/  2  1024.6S   0
COVE POINT MD    0800   29     160/  2/  3 1025.3F
SOLOMONS ISLAND  0800      35                N/A
BISHOPS HEAD MD  0800   30 31  160/  2/  2 1025.2R
PINEY POINT MD   0800           70/  1/  1   N/A
POTOMAC MD       0800   32 35   30/  2/  4 1024.6R   0
CAMBRIDGE MD     0800   22 33   CALM  /  2 1025.5F
LEWISETTA VA     0800   26 33     CALM     1025.5R
RAPPAHANNOCK LGT 0800           60/  7/  8 1025.8R
STINGRAY PT      0800   34 36   70/  8/ 10 1025.8R
YORK RVR RNG VA  0800   36     140/  2/  2 1024.6R
YORKTOWN VA      0800   29 37  220/  1/  2 1024.8R
JAMESTOWN VA     0800   32 38  290/  2/  4   N/A     0
DOMINION TERM VA 0800   34     270/  4/  5 1025.0R
KIPTOPEKE VA     0800      41   80/  7/ 11   N/A
CHES BAY BRIDGE  0800   34 38  230/  2/  3 1024.6S
CAPE HENRY VA    0800   32     300/  3/  4 1023.5F
CHESAPEAKE LGHT  0700   38     230/  4/  5 1025.7S
WILLOUBY STN VA  0800   35     240/  4/  4 1025.4R
S CRANEY ISL VA  0800          250/  2/  3 1024.7R
CAPE HENRY BUOY  0700      41                N/A     2/ 8
1ST LANDING BUOY 0800   35 38  290/  4/  4 1024.7R   1
CAPE CHARLES BUO 0800      40                N/A     2/ 7   2/ 7
OFFSHORE WE BUOY 0800      43                N/A     3/ 7   3/ 7
64NM E OF VA BCH 0800   42 48  280/  8/ 10 1024.8S   5/ 8   5/ 8
DUCK PIER NC     0800   37 41  230/  8/  9 1024.3F
44100 DUCK FRF   0800      43                N/A     3/ 8
44056 DUCK FRF   0800      40                N/A     3/ 8
OREGON INLET NC  0800   38 38  210/  7/  8 1025.6F
HATTERAS NC      0800   40 41  250/  7/ 10 1026.2F


USA.gov is the U.S. government's official web portal to all federal, state and local government web resources and services.